When you browse on this site, cookies collect data to enhance your experience and personalize the content and advertising you see.
Visit our Privacy Policy to learn more. By continuing to use the site, you agree to this use of cookies and data.
  • In Sweden
  • List of Countries
  • For 7 days
  • Water Temperature
  • Satellite Maps
  • Weather Map
  • Weather Widgets
  • user-avatar
    Login

    Hourly Weather Balchik

    Today, 21 November, Wednesday

    Time Temperature Precipitation Wind Pressure Humidity
    00:00 +4°C° 0.4 mm 4 mps 742 mmHg 89%
    01:00 +4°C° 0.4 mm 4 mps 742 mmHg 91%
    02:00 +3°C° 0 mm 5 mps 742 mmHg 91%
    03:00 +3°C° 0.3 mm 5 mps 741 mmHg 91%
    04:00 +3°C° 0.3 mm 5 mps 741 mmHg 92%
    05:00 +5°C° 0.3 mm 5 mps 741 mmHg 92%
    06:00 +5°C° 0.7 mm 5 mps 740 mmHg 93%
    07:00 +5°C° 0.7 mm 5 mps 740 mmHg 93%
    08:00 +4°C° 0.7 mm 6 mps 740 mmHg 93%
    09:00 +5°C° 1.3 mm 6 mps 739 mmHg 93%
    10:00 +5°C° 1.3 mm 6 mps 739 mmHg 93%
    11:00 +5°C° 1.3 mm 6 mps 739 mmHg 93%
    12:00 +5°C° 1 mm 6 mps 739 mmHg 93%
    13:00 +5°C° 1 mm 7 mps 738 mmHg 92%
    14:00 +5°C° 1 mm 7 mps 738 mmHg 92%
    15:00 +5°C° 0.9 mm 7 mps 738 mmHg 92%
    16:00 +5°C° 0.9 mm 7 mps 738 mmHg 92%
    17:00 +5°C° 0.9 mm 7 mps 738 mmHg 91%
    18:00 +5°C° 0.7 mm 7 mps 738 mmHg 91%
    19:00 +5°C° 0.7 mm 7 mps 739 mmHg 90%
    20:00 +5°C° 0.7 mm 7 mps 739 mmHg 90%
    21:00 +5°C° 0.7 mm 7 mps 739 mmHg 90%
    22:00 +5°C° 0.7 mm 7 mps 739 mmHg 89%
    23:00 +5°C° 0.7 mm 7 mps 740 mmHg 89%

    Tomorrow, 22 November, Thursday

    Time Temperature Precipitation Wind Pressure Humidity
    00:00 +4°C° 0.7 mm 7 mps 740 mmHg 89%
    01:00 +4°C° 0.7 mm 8 mps 740 mmHg 88%
    02:00 +4°C° 0.7 mm 8 mps 740 mmHg 88%
    03:00 +2°C° 0.5 mm 8 mps 741 mmHg 88%
    04:00 +2°C° 0.5 mm 8 mps 741 mmHg 87%
    05:00 +3°C° 0.5 mm 7 mps 741 mmHg 87%
    06:00 +2°C° 0.3 mm 7 mps 741 mmHg 86%
    07:00 +2°C° 0.3 mm 7 mps 742 mmHg 86%
    08:00 +2°C° 0.3 mm 7 mps 742 mmHg 86%
    09:00 +2°C° 0.2 mm 7 mps 743 mmHg 84%
    10:00 +2°C° 0.2 mm 6 mps 743 mmHg 82%
    11:00 +2°C° 0.2 mm 6 mps 743 mmHg 81%
    12:00 +2°C° 0.1 mm 6 mps 743 mmHg 78%
    13:00 +3°C° 0.1 mm 6 mps 744 mmHg 75%
    14:00 +3°C° 0.1 mm 5 mps 744 mmHg 73%
    15:00 +3°C° 0 mm 5 mps 744 mmHg 72%
    16:00 +2°C° 0 mm 5 mps 744 mmHg 71%
    17:00 +3°C° 0 mm 4 mps 744 mmHg 70%
    18:00 +1°C° 0 mm 4 mps 745 mmHg 70%
    19:00 0°C° 0 mm 4 mps 745 mmHg 70%
    20:00 0°C° 0 mm 4 mps 745 mmHg 70%
    21:00 0°C° 0 mm 3 mps 745 mmHg 71%
    22:00 0°C° 0 mm 3 mps 746 mmHg 72%
    23:00 -1°C° 0 mm 3 mps 746 mmHg 73%

    Day after tomorrow, 23 November, Friday

    Time Temperature Precipitation Wind Pressure Humidity
    00:00 -1°C° 0 mm 3 mps 746 mmHg 75%
    01:00 -1°C° 0 mm 3 mps 746 mmHg 76%
    02:00 -2°C° 0 mm 3 mps 746 mmHg 78%
    03:00 -2°C° 0 mm 3 mps 746 mmHg 78%
    04:00 -2°C° 0 mm 3 mps 746 mmHg 79%
    05:00 -2°C° 0 mm 3 mps 746 mmHg 79%
    06:00 -2°C° 0 mm 3 mps 747 mmHg 78%
    07:00 -2°C° 0 mm 3 mps 747 mmHg 77%
    08:00 -2°C° 0 mm 3 mps 747 mmHg 76%
    09:00 -1°C° 0 mm 3 mps 748 mmHg 68%
    10:00 0°C° 0 mm 3 mps 748 mmHg 61%
    11:00 +2°C° 0 mm 3 mps 748 mmHg 53%
    12:00 +2°C° 0 mm 3 mps 748 mmHg 51%
    13:00 +4°C° 0 mm 2 mps 748 mmHg 49%
    14:00 +5°C° 0 mm 2 mps 748 mmHg 47%
    15:00 +4°C° 0 mm 2 mps 748 mmHg 50%
    16:00 +3°C° 0 mm 2 mps 748 mmHg 54%
    17:00 +2°C° 0 mm 2 mps 748 mmHg 58%
    18:00 +2°C° 0 mm 2 mps 748 mmHg 59%
    19:00 +1°C° 0 mm 2 mps 748 mmHg 60%
    20:00 +2°C° 0 mm 1 mps 749 mmHg 61%
    21:00 +2°C° 0 mm 1 mps 749 mmHg 61%
    22:00 +1°C° 0 mm 1 mps 749 mmHg 61%
    23:00 +1°C° 0 mm 1 mps 749 mmHg 61%

    24 November, Saturday

    Time Temperature Precipitation Wind Pressure Humidity
    00:00 +1°C° 0 mm 1 mps 748 mmHg 61%
    01:00 +1°C° 0 mm 1 mps 748 mmHg 61%
    02:00 +1°C° 0 mm 1 mps 748 mmHg 62%
    03:00 +1°C° 0 mm 1 mps 748 mmHg 62%
    04:00 +1°C° 0 mm 1 mps 747 mmHg 63%
    05:00 +1°C° 0 mm 1 mps 747 mmHg 64%
    06:00 +1°C° 0 mm 1 mps 747 mmHg 65%
    07:00 +1°C° 0 mm 1 mps 747 mmHg 67%
    08:00 +2°C° 0 mm 1 mps 747 mmHg 68%
    09:00 +2°C° 0 mm 2 mps 747 mmHg 66%
    10:00 +4°C° 0 mm 2 mps 747 mmHg 64%
    11:00 +6°C° 0 mm 2 mps 746 mmHg 63%
    12:00 +6°C° 0 mm 2 mps 746 mmHg 62%
    13:00 +7°C° 0 mm 2 mps 745 mmHg 62%
    14:00 +8°C° 0 mm 2 mps 745 mmHg 61%
    15:00 +6°C° 0 mm 2 mps 744 mmHg 67%
    16:00 +5°C° 0 mm 2 mps 744 mmHg 73%
    17:00 +5°C° 0 mm 1 mps 744 mmHg 79%
    18:00 +4°C° 0 mm 2 mps 743 mmHg 81%
    19:00 +4°C° 0 mm 2 mps 743 mmHg 84%
    20:00 +4°C° 0 mm 2 mps 743 mmHg 86%
    21:00 +3°C° 0 mm 2 mps 743 mmHg 87%
    22:00 +3°C° 0 mm 2 mps 743 mmHg 88%
    23:00 +3°C° 0 mm 2 mps 742 mmHg 89%

    25 November, Sunday

    Time Temperature Precipitation Wind Pressure Humidity
    00:00 +3°C° 0 mm 2 mps 742 mmHg 89%
    01:00 +3°C° 0 mm 2 mps 742 mmHg 89%
    02:00 +3°C° 0 mm 2 mps 741 mmHg 89%
    03:00 +3°C° 0 mm 2 mps 741 mmHg 89%
    04:00 +3°C° 0 mm 2 mps 740 mmHg 88%
    05:00 +3°C° 0 mm 2 mps 740 mmHg 88%
    06:00 +3°C° 0 mm 2 mps 740 mmHg 87%
    07:00 +3°C° 0 mm 2 mps 740 mmHg 86%
    08:00 +3°C° 0 mm 2 mps 740 mmHg 85%
    09:00 +5°C° 0 mm 2 mps 740 mmHg 77%
    10:00 +7°C° 0 mm 3 mps 739 mmHg 69%
    11:00 +8°C° 0 mm 3 mps 739 mmHg 61%
    12:00 +9°C° 0 mm 3 mps 739 mmHg 57%
    13:00 +10°C° 0 mm 3 mps 738 mmHg 54%
    14:00 +11°C° 0 mm 3 mps 738 mmHg 51%
    15:00 +10°C° 0 mm 3 mps 737 mmHg 56%
    16:00 +9°C° 0 mm 2 mps 737 mmHg 61%
    17:00 +8°C° 0 mm 2 mps 737 mmHg 65%
    18:00 +7°C° 0 mm 2 mps 737 mmHg 68%
    19:00 +7°C° 0 mm 2 mps 737 mmHg 70%
    20:00 +7°C° 0 mm 2 mps 737 mmHg 72%
    21:00 +7°C° 0 mm 2 mps 736 mmHg 73%
    22:00 +7°C° 0 mm 2 mps 736 mmHg 73%
    23:00 +7°C° 0 mm 2 mps 736 mmHg 74%

    26 November, Monday

    Time Temperature Precipitation Wind Pressure Humidity
    00:00 +7°C° 0 mm 2 mps 736 mmHg 74%
    01:00 +6°C° 0 mm 2 mps 735 mmHg 75%
    02:00 +6°C° 0 mm 2 mps 735 mmHg 75%
    03:00 +7°C° 0 mm 1 mps 735 mmHg 76%
    04:00 +7°C° 0 mm 1 mps 735 mmHg 76%
    05:00 +7°C° 0 mm 1 mps 735 mmHg 77%
    06:00 +6°C° 0 mm 1 mps 735 mmHg 77%
    07:00 +6°C° 0 mm 1 mps 735 mmHg 77%
    08:00 +6°C° 0 mm 1 mps 735 mmHg 77%
    09:00 +8°C° 0 mm 1 mps 735 mmHg 73%
    10:00 +9°C° 0 mm 1 mps 735 mmHg 68%
    11:00 +9°C° 0 mm 2 mps 734 mmHg 64%
    12:00 +9°C° 0.2 mm 2 mps 734 mmHg 67%
    13:00 +9°C° 0.2 mm 2 mps 734 mmHg 69%
    14:00 +9°C° 0.2 mm 2 mps 733 mmHg 71%
    15:00 +8°C° 1.2 mm 3 mps 733 mmHg 77%
    16:00 +7°C° 1.2 mm 3 mps 733 mmHg 82%
    17:00 +6°C° 1.2 mm 4 mps 733 mmHg 88%
    18:00 +5°C° 1.5 mm 4 mps 733 mmHg 89%
    19:00 +5°C° 1.5 mm 5 mps 733 mmHg 90%
    20:00 +5°C° 1.5 mm 5 mps 733 mmHg 91%
    21:00 +3°C° 1.2 mm 6 mps 733 mmHg 90%
    22:00 +3°C° 1.2 mm 6 mps 733 mmHg 90%
    23:00 +3°C° 1.2 mm 6 mps 733 mmHg 89%
    Show more